Regional Weather Roundup
Issued by NWS Tiyan, Guam

Current Version | Previous Version | Text Only | Print | Product List | Glossary On
Versions: 1 2 3 4 5 6 7 8 9 10 11 12 13 14 15 16 17 18 19 20 21 22 23 24 25 26 27 28 29 30 31 32 33 34 35 36 37 38 39 40 41 42 43 44 45 46 47 48 49 50
000
ASGM40 PGUM 020210
RWRGUM
WEATHER ROUNDUP FOR THE MARIANAS
NATIONAL WEATHER SERVICE TIYAN GU
1200 PM CHST WED SEP 02 2015

GUZ001>004-020300-
MARIANA ISLANDS-

CITY           SKY/WX    TMP DP  RH WIND       PRES   REMARKS
GUAM AIRPORT   NOT AVBL
ANDERSEN AFB   MOSUNNY   84  77  79 E9        29.91F HX  94
ROTA AIRPORT   PTSUNNY   84  79  84 NE12      29.91F HX  96
TINIAN AP      MOSUNNY   86  75  70 E8        29.88S HX  95
SAIPAN AP      MOSUNNY   86  77  74 E5        29.90S HX  97

$$




USA.gov is the U.S. government's official web portal to all federal, state and local government web resources and services.